User: anonymous   Login
Location: Bittkow
(50.3000°N, 19.0000°E)
Time: 03:44:51
(UTC+00:00)
Language:

Cosmos 1733 Rocket - Orbit

View from above orbital plane
View from above orbital plane
View from above satellite
View from above satellite

Ground track
Ground track

The orbit data is extracted from the following two-line orbital elements,

1 16612U 86018B   21215.47167317  .00000065  00000-0  49336-5 0  9997
2 16612  82.5188 321.1896 0016850 210.1285 203.3184 14.84312440794089
Epoch (UTC): 03 August 2021 11:19:12
Eccentricity: 0.0016850
inclination: 82.5188°
perigee height: 604 km
apogee height: 627 km
right ascension of ascending node: 321.1896°
argument of perigee: 210.1285°
revolutions per day: 14.84312440
mean anomaly at epoch: 203.3184°
orbit number at epoch: 79408

The dashed part of the orbit path shows where the satellite is in the earth's shadow,  

DLR